Tracking 28790 objects as of 19-Apr-2024
HD Live streaming from Space Station
objects crossing your sky now

ATLAS 28E DEB

Track ATLAS 28E DEB now!
10-day predictions


NORAD ID: 20565
Int'l Code: 1990-031F
Perigee: 585.5 km
Apogee: 663.3 km
Inclination: 89.9 °
Period: 97.0 minutes
Semi major axis: 6995 km
RCS: Unknown
Launch date: April 11, 1990
Source: United States (US)
Launch site: AIR FORCE WESTERN TEST RANGE (AFWTR)

Note: This is SATELLITE DEBRIS
Your satellite tracking list
Your tracking list is empty




NASA's NSSDC Master Catalog

Two Line Element Set (TLE):
1 20565U 90031F   24109.90712503  .00006549  00000-0  76694-3 0  9993
2 20565  89.8756 255.3471 0055610 200.7880 159.1085 14.83825771266326
Source of the keplerian elements: AFSPC